This demonstration page uses our WeatherBlox Daily Observations layout. Learn more.

Left ArrowRight Arrow

53.62937, 11.41316

Hourly Observations for May 29, 2016

Temp ( °F °C ) Dew Point ( °F °C ) Humidity (%) Winds ( mph kmh ) Pressure ( in mb ) Visibility ( mi km ) Precip ( " mm )
6:20 am 06:20 Cloudy with Mist and Fog 57 14 55 13 94 94 NE 7 11 29.85 1011 3 4 N/A
6:50 am 06:50 Cloudy with Mist and Fog 57 14 57 14 100 100 NE 8 13 29.85 1011 3 4 N/A
7:20 am 07:20 Cloudy with Mist and Fog 57 14 57 14 100 100 NE 9 15 29.85 1011 3 4 N/A
7:50 am 07:50 Cloudy with Mist and Fog 57 14 57 14 100 100 NE 9 15 29.85 1011 3 5 N/A
8:20 am 08:20 Mostly Cloudy 59 15 57 14 94 94 NE 10 17 29.85 1011 4 6 N/A
8:50 am 08:50 Mostly Cloudy 59 15 57 14 94 94 NE 13 20 29.85 1011 4 7 N/A
9:20 am 09:20 Mostly Cloudy 59 15 57 14 94 94 NE 9 15 29.85 1011 5 8 N/A
9:50 am 09:50 Mostly Cloudy 61 16 57 14 88 88 NE 10 17 29.83 1010 6 9 N/A
10:20 am 10:20 Mostly Cloudy 61 16 57 14 88 88 NE 8 13 29.83 1010 30 48 N/A
10:50 am 10:50 Mostly Cloudy 63 17 59 15 88 88 NE 10 17 29.83 1010 30 48 N/A
11:20 am 11:20 Mostly Cloudy 64 18 59 15 83 83 NE 9 15 29.83 1010 30 48 N/A
11:50 am 11:50 Mostly Cloudy 64 18 59 15 83 83 NE 10 17 29.83 1010 30 48 N/A
12:20 pm 12:20 Mostly Cloudy 68 20 61 16 78 78 NE 8 13 29.80 1009 30 48 N/A
12:50 pm 12:50 Mostly Sunny 70 21 63 17 78 78 NE 10 17 29.80 1009 7 11 N/A
1:20 pm 13:20 Mostly Sunny 72 22 63 17 73 73 NE 10 17 29.80 1009 7 11 N/A
1:50 pm 13:50 Mostly Cloudy 75 24 63 17 65 65 NE 13 20 29.77 1008 30 48 N/A
2:20 pm 14:20 Mostly Cloudy 77 25 63 17 61 61 ENE 14 22 29.77 1008 30 48 N/A
2:50 pm 14:50 Partly Cloudy 75 24 61 16 61 61 ENE 16 26 29.77 1008 30 48 N/A
3:20 pm 15:20 Partly Cloudy 77 25 61 16 57 57 ENE 17 28 29.77 1008 30 48 N/A
3:50 pm 15:50 Mostly Sunny 79 26 61 16 54 54 ENE 16 26 29.74 1007 7 11 N/A
4:20 pm 16:20 Mostly Sunny 79 26 63 17 58 58 ENE 12 19 29.74 1007 7 11 N/A
4:50 pm 16:50 Mostly Sunny 79 26 61 16 54 54 ENE 15 24 29.74 1007 7 11 N/A
5:20 pm 17:20 Mostly Sunny 75 24 61 16 61 61 E 17 28 29.74 1007 7 11 N/A
5:50 pm 17:50 Mostly Sunny 75 24 64 18 69 69 ENE 8 13 29.74 1007 7 11 N/A
6:20 pm 18:20 Mostly Sunny 77 25 61 16 57 57 ENE 13 20 29.74 1007 7 11 N/A
6:50 pm 18:50 Mostly Sunny 75 24 61 16 61 61 ENE 13 20 29.74 1007 7 11 N/A

Powered by AerisWeather